CZ-2C R/B, 45722

Orbit data source: Space-Track

CZ-2C R/B, 45722 is space debris in SSO originally from a launch on Wed, 10 Jun 2020 UTC launched from the Taiyaun Space Center, China (TSC). Debris objects in space refer to the collection of defunct objects orbiting the Earth. Examples of debris include non-operational satellites, rocket bodies, and fragments generated from explosions, collisions, or faulty payload assembly.

Loading next visibility...
Identifier
45722, 2020-036B
Orbit
SSO
Country
Flag of CNCN / PRC
Related business
Manufacturer
CALT
Mission
Spacecraft
Bus & Motor
CZ-2 STAGE 2, Unknown motor
Mass
~3,800 kg wet, ~3,800 kg dry
Launch date (UTC)
2020-06-10 (6 years ago)
Launch vehicle
Unknown
Launch site
Taiyaun Space Center, China (TSC)
Object type
Payload
Rocket body
Debris
Shape & HBR
Cyl, 3.7 m
Radar Cross Section
23.715 m², Large (>1 m²)

Expand to show TLE details & history
Last TLE update: 2 days ago

TLE from 2 days ago
0 CZ-2C R/B
1 45722U 20036B   26171.35333235  .00000171  00000-0  58844-4 0  9997
2 45722  98.7239 196.9067 0049047 288.4086  71.1776 14.47674029318182
Epoch: 2026-06-20T08:28Z
TLE epoch observation values (Epoch: 2026-06-20T08:28:47.915Z)
Latitude
-0.00005°
Longitude
161.13789°
Altitude
725.105 km
Speed
7.499 km/s
True Right ascension
13h 07m 37s
True Declination
0° 00' 00"
Sunlit
Object was in daylight at epoch
Visualization orbit readout
Latitude
Unknown
Longitude
Unknown
Altitude
Unknown
Speed
Unknown
Apparent Right ascension
Unknown
Apparent Declination
Unknown
Sunlit
N/A
Visualization observer readout
Local Sidereal Time
21:29:53
Azimuth
Unknown
Elevation
Unknown
Doppler factor
Unknown
Orbital elements
Apogee altitude
765.243 km
Perigee altitude
695.513 km
Semi-major axis
7,108.515 km
Eccentricity
0.0049
Inclination
98.7239°
RAAN
196.9067°
Arg. of periapsis
288.4086°
True anomaly
71.71063°
Mean anomaly
71.1776°
Eccentric anomaly
71.44401°
Mean motion
3.62139 °/min
Orbital period
99.41 mins
BSTAR
0.000058844
Loading maneuver chart data...
Computing Atmospheric mass density...
Loading historical data...
Loading historical data...
Loading historical data...
Loading historical data...
Loading historical data...
Loading historical data...
Loading historical data...
Other satellites on launch #36 in the year 2020 (2020-06-10 UTC)

Documentation

Showing up to 5 results
|